Voltar ao catálogo

SPOT 6

AtivoCiênciaSSO
NORAD 38755·PAYLOAD·🇫🇷 France

Lançado Sep 9, 2012 de Satish Dhawan Space Centre

Loading…

Próximas Passagens (próximas 24 horas)

TLE

AtualizadoSource: Space-Track

Época: Sep 14, 2026, 15:42 UTC

1 38755U 12047A   26257.65477061  .00000147  00000-0  41489-4 0  9992
2 38755  98.2041 323.8781 0001615  85.8775 274.2609 14.58562644746090

Acompanhe SPOT 6 em tempo real com AllMySat

Download on the App Store